| time (UTC) | temp C | wind direction | speed KPH | gust KPH | rain 1hr cm | rain 24hr cm | rain mn cm | humidity % | barometer mb |
| 20260831103210 | 22 | 3 | 0.0 | 0.0 | 0.00 | 0.05 | 0.00 | 95 | 1015.6 |
| 20260831093210 | 22 | 255 | 0.0 | 0.0 | 0.00 | 0.05 | 0.00 | 95 | 1015.2 |
| 20260831083209 | 23 | 255 | 0.0 | 0.0 | 0.00 | 0.05 | 0.00 | 95 | 1015.3 |
| 20260831080209 | 23 | 255 | 0.0 | 0.0 | 0.00 | 0.05 | 0.00 | 95 | 1015.4 |
| 20260831073210 | 23 | 256 | 0.0 | 0.0 | 0.00 | 0.05 | 0.00 | 95 | 1015.4 |
| 20260831063209 | 23 | 256 | 0.0 | 0.0 | 0.00 | 0.05 | 0.00 | 95 | 1015.8 |
| 20260831060208 | 23 | 256 | 0.0 | 0.0 | 0.00 | 0.05 | 0.00 | 95 | 1015.8 |
| 20260831050208 | 23 | 256 | 0.0 | 0.0 | 0.00 | 0.05 | 0.00 | 95 | 1016.0 |
| 20260831043208 | 23 | 255 | 0.0 | 0.0 | 0.00 | 0.05 | 0.05 | 95 | 1016.1 |
| 20260831040208 | 24 | 256 | 0.0 | 0.0 | 0.00 | 0.05 | 0.05 | 95 | 1016.3 |
| 20260831030208 | 24 | 256 | 0.0 | 0.0 | 0.00 | 0.05 | 0.05 | 95 | 1016.3 |
| 20260831010207 | 25 | 256 | 0.0 | 0.0 | 0.00 | 0.05 | 0.05 | 91 | 1015.4 |
| 20260830233207 | 27 | 256 | 0.0 | 0.0 | 0.00 | 0.05 | 0.05 | 87 | 1015.1 |
| 20260830230207 | 27 | 257 | 0.0 | 0.0 | 0.00 | 0.05 | 0.05 | 86 | 1015.1 |
| 20260830223207 | 27 | 75 | 0.0 | 0.0 | 0.00 | 0.05 | 0.05 | 85 | 1015.1 |
| 20260830213207 | 27 | 23 | 0.0 | 0.0 | 0.00 | 0.05 | 0.05 | 82 | 1015.2 |
| 20260830210207 | 28 | 317 | 8.0 | 8.0 | 0.00 | 0.05 | 0.05 | 75 | 1015.3 |
| 20260830203207 | 32 | 278 | 0.0 | 4.8 | 0.00 | 0.05 | 0.05 | 68 | 1015.5 |
| 20260830200207 | 32 | 195 | 3.2 | 4.8 | 0.00 | 0.05 | 0.05 | 69 | 1015.6 |
| 20260830193207 | 31 | 212 | 0.0 | 3.2 | 0.00 | 0.05 | 0.05 | 71 | 1015.8 |
| 20260830190206 | 29 | 200 | 0.0 | 0.0 | 0.05 | 0.05 | 0.05 | 85 | 1016.3 |
| 20260830180207 | 31 | 186 | 0.0 | 0.0 | 0.00 | 0.00 | 0.00 | 74 | 1017.0 |
| 20260830173206 | 31 | 264 | 0.0 | 0.0 | 0.00 | 0.00 | 0.00 | 71 | 1017.2 |
| 20260830163206 | 31 | 222 | 0.0 | 8.0 | 0.00 | 0.00 | 0.00 | 73 | 1017.7 |
| 20260830160206 | 30 | 248 | 0.0 | 0.0 | 0.00 | 0.00 | 0.00 | 74 | 1018.1 |
| 20260830153206 | 31 | 129 | 0.0 | 3.2 | 0.00 | 0.00 | 0.00 | 73 | 1017.9 |
| 20260830150206 | 30 | 259 | 3.2 | 3.2 | 0.00 | 0.00 | 0.00 | 78 | 1017.6 |
| 20260830143206 | 28 | 225 | 0.0 | 0.0 | 0.00 | 0.00 | 0.00 | 83 | 1017.7 |
| 20260830140206 | 27 | 191 | 0.0 | 0.0 | 0.00 | 0.00 | 0.00 | 89 | 1017.7 |
| 20260830133207 | 25 | 180 | 8.0 | 8.0 | 0.00 | 0.03 | 0.00 | 94 | 1017.4 |
| 20260830130206 | 23 | 354 | 0.0 | 3.2 | 0.00 | 0.03 | 0.00 | 94 | 1017.6 |
| 20260830123206 | 22 | 232 | 0.0 | 0.0 | 0.00 | 0.03 | 0.00 | 94 | 1017.2 |
| 20260830120206 | 22 | 257 | 0.0 | 0.0 | 0.00 | 0.03 | 0.00 | 95 | 1016.9 |
| 20260830113205 | 22 | 161 | 0.0 | 0.0 | 0.00 | 0.03 | 0.00 | 95 | 1016.6 |